Simultaneous Nadir Overpasses (SNOs) Predictions

Prediction of SNOs between AQUA and GOES-15 Satellite Orbit:

Table of predicted SNOs for the next 14.0 days since TLE Epoch: 10/15/2017
Index Date Time (AQUA) AQUA Lat,Lon GOES-15 Lat,Lon Distance(km) Time Diff (sec)
1 10/15/2017 22:40:52 -0.40,-136.34 -0.19,-135.24 124.12 80
2 10/17/2017 22:28:40 0.21,-133.38 -0.19,-135.21 208.31 80
3 10/18/2017 10:49:56 0.84,-138.54 0.17,-135.28 370.54 80
4 10/20/2017 10:37:44 0.23,-135.58 0.17,-135.24 38.63 80
5 10/22/2017 10:25:32 -0.39,-132.62 0.18,-135.19 292.87 80
6 10/22/2017 22:46:56 -0.72,-137.81 -0.16,-135.09 308.74 80
7 10/24/2017 22:34:44 -0.09,-134.85 -0.16,-135.04 22.18 80
8 10/26/2017 22:22:31 0.49,-131.88 -0.16,-134.98 352.16 80
9 10/27/2017 10:43:47 0.56,-137.04 0.14,-135.05 226.36 80




NCC Satellite Simultaneous Nadir Overpasses (SNOs) Prediction Service
